Location: D�derode
(51.8092°N, 10.1065°E)
Time: 01:40:14
(UTC+00:00)

Cosmos 1812 - Pass Details

Date: 22 April 2021
Orbit: 516 x 519 km, 82.5° (Epoch: 10 May)

Event Time Altitude Azimuth Distance (km) Brightness Sun altitude
Exits shadow 22:12:59 18° 64° (ENE) 1,337 4.8 -24.2°
Drops below altitude 10° 22:14:44 10° 39° (NE) 1,765 5.8 -24.2°
Sets 22:17:16 0° 23° (NNE) 2,659 7.1 -24.3°
